Location: Newark
(42.7133°N, 87.7910°W)
Time: 12:38:11
(UTC+00:00)

Vanguard 1 Rocket - Pass Details

Date: 18 September 2019
Orbit: 650 x 4226 km, 34.3° (Epoch: 13 October)

Event Time Altitude Azimuth Distance (km) Brightness Sun altitude
Rises 01:39:55 0° 250° (WSW) 7,697 12.9 -19.1°
Reaches altitude 10° 01:45:57 10° 248° (WSW) 6,189 12.2 -20.1°
Maximum altitude 02:02:19 55° 177° (S) 2,293 9.1 -22.9°
Enters shadow 02:06:23 37° 122° (ESE) 2,374 8.9 -23.5°
